Weather in Novosilskoye

Russia / Lipetsk Oblast     52°05′34″N   38°36′59″E
temp.,
°C
wind,
m/s
gust,
m/s
humid.,
%
clouds,
%
prec.,
mm/h
press.,
hPa
HPBL,
m
6 march, sat
sat600:00−6wnw339595 0.0 101661
03:00−7nw229498 0.0 101740
06:00−8wnw2393100 0.0 101645
09:00−7wnw3591100 0.0 1017201
12:00−6wnw459199 0.0 1018318
15:00−5nw698886 0.0 1017725
18:00−8nw499048 0.0 1018264
21:00−11wnw359024 0.0 101997
7 march, sun
sun700:00−11w49900 0.0 1020173
03:00−12w49890 0.0 1019167
06:00−11wsw511910 0.0 1017261
09:00−7sw8168333 0.0 1014671
12:00−4sw111775100 0.0 1011993
15:00−1wsw111977100 0.0 10061307
18:00−2wsw111993100 0.3 10031175
21:00−1wsw111890100 0.6 10031053
8 march, mon
mon800:00−6ssw139398 2.0 100382
03:00−6wsw5139292 2.1 1004403
06:00−6wsw6158729 0.0 1004449
09:00−6w8148738 0.0 1005908
12:00−6wnw8127357 0.0 1007906
15:00−6wnw6107929 0.0 1010699
18:00−9w49860 0.0 1011213
21:00−11w47890 0.0 1013127
9 march, tue
tue900:00−12w34890 0.0 101470
03:00−13w33910 0.0 101447
06:00−13wnw239430 0.0 101534
09:00−11nnw239456 0.1 1016142
12:00−8n238891 0.0 1016385
15:00−8n448996 0.1 1017535
18:00−10n4791100 0.1 1018409
21:00−13n379398 0.1 1021232
10 march, wed
wed1000:00−15nnw359526 0.0 1023101
03:00−17nw349513 0.0 102476
06:00−17wnw339717 0.0 102564
09:00−15wnw249551 0.0 1026141
12:00−12w348483 0.0 1026316
15:00−9wsw468692 0.0 1024469
18:00−8wsw4989100 0.2 1023505
21:00−9wsw3889100 0.2 1023215